Regional Weather Roundup
Issued by NWS Cleveland, OH

Home | Current Version | Previous Version | Graphics & Text | Print | Product List | Glossary On
Versions: 1 2 3 4 5 6 7 8 9 10 11 12 13 14 15 16 17 18 19 20 21 22 23 24 25 26 27 28 29 30 31 32 33 34 35 36 37 38 39 40 41 42 43 44 45 46 47 48 49 50
000
ASUS41 KCLE 032002
RWRCLE
OHIO REGIONAL WEATHER ROUNDUP
NATIONAL WEATHER SERVICE CLEVELAND, OH
400 PM EDT SUN MAY 03 2015

NOTE: "FAIR" INDICATES FEW OR NO CLOUDS BELOW 12,000 FEET WITH NO
SIGNIFICANT WEATHER AND/OR OBSTRUCTIONS TO VISIBILITY.

OHZ001>008-015>018-024>027-034-035-043-044-032100-
   NORTHWEST OHIO

CITY           SKY/WX    TMP DP  RH WIND       PRES   REMARKS
DEFIANCE       MOSUNNY   79  46  31 SW14      30.02F
FINDLAY        MOSUNNY   77  45  32 SW15      30.04F
TOLEDO EXPRESS SUNNY     78  43  28 SW15G24   30.02F
TOLEDO EXEC    MOSUNNY   79  43  27 SW14      30.03F
LIMA           PTSUNNY   76  47  35 SW15      30.06F
$$

OHZ009>014-019>023-028>033-038-089-032100-
   NORTHEAST OHIO

CITY           SKY/WX    TMP DP  RH WIND       PRES   REMARKS
CLE-HOPKINS    MOSUNNY   78  44  29 SW13G18   30.07F
CLE-LAKEFRONT  MOSUNNY   72  43  35 NE7       30.05F
CUY CO. ARPT   MOSUNNY   77  46  33 NW12      30.08F
LORAIN-ELYRIA  MOSUNNY   79  43  27 W18G25    30.06F
ASHTABULA      MOSUNNY   76  40  27 NW9       30.08F
AKRON-CANTON   MOSUNNY   78  42  27 SW12G20   30.09F
WOOSTER        PTSUNNY   77  39  25 SW14      30.08F
MANSFIELD      MOSUNNY   76  43  30 SW13G21   30.08F
YOUNGSTOWN     PTSUNNY   74  40  29 SE6       30.08F
$$

OHZ042-051>053-060>062-070>072-077>081-032100-
  SOUTHWEST OHIO

CITY           SKY/WX    TMP DP  RH WIND       PRES   REMARKS
CINC-COVINGTON MOSUNNY   75  51  43 S14       30.09F
CINC-LUNKEN    SUNNY     76  48  37 VRB5      30.08F
HAMILTON       SUNNY     78  46  32 MISG      30.08F
DAYTON         MOSUNNY   77  46  33 SW12      30.08F
WRIGHT-PAT AFB NOT AVBL
DAYTON GENERAL MOSUNNY   74  47  38 S10       30.08F
WILMINGTON     MOSUNNY   76  46  34 SW13      30.09F
$$

OHZ036-037-039>041-045>050-054>059-063>069-073>076-082>088-032100-
  CENTRAL AND SOUTHEAST OHIO

CITY           SKY/WX    TMP DP  RH WIND       PRES   REMARKS
COLUMBUS       PTSUNNY   77  45  32 SW12G23   30.08F
OSU AIRPORT    MOSUNNY   75  44  33 S13       30.08F
BOLTON FIELD   SUNNY     77  46  33 SW14G23   30.09F
RICKENBACK AFB NOT AVBL
NEWARK         MOSUNNY   76  48  37 MISG      30.08F
MARION         MOSUNNY   76  42  29 SW10      30.08F
LANCASTER      MOSUNNY   76  47  35 W9        30.10F
ZANESVILLE     MOSUNNY   75  41  29 VRB5      30.10F
NEW PHILLY     SUNNY     78  42  27 VRB7      30.09F
$$


USA.gov is the U.S. government's official web portal to all federal, state and local government web resources and services.